Location: Dead Woman Crossing
(43.5369°N, 106.3228°W)
Time: 10:06:19
(UTC+00:00)

COSMOS 2251 DEB - Visible Passes

Search period start: 30 November 2022 00:00
Search period end: 10 December 2022 00:00
Orbit: 764 x 801 km, 74.0° (Epoch: 28 November)

Date Brightness Start Highest point End Pass type
(mag) Time Alt. Az. Time Alt. Az. Time Alt. Az.
30 Nov ? 00:15:10 10° NNE 00:17:13 12° NE 00:18:50 11° ENE visible
30 Nov ? 01:55:18 10° NNW 01:59:30 56° N 01:59:30 56° N visible
30 Nov ? 03:39:43 10° WNW 03:40:09 11° WNW 03:40:09 11° WNW visible
01 Dec ? 01:22:49 10° N 01:27:57 49° ENE 01:28:59 43° E visible
01 Dec ? 03:06:02 10° NW 03:09:41 21° W 03:09:41 21° W visible
02 Dec ? 00:50:28 10° N 00:55:14 33° ENE 00:59:35 12° ESE visible
02 Dec ? 02:32:54 10° NW 02:37:33 33° W 02:40:27 19° SSW visible
03 Dec ? 00:18:16 10° N 00:22:26 23° ENE 00:26:34 10° ESE visible
03 Dec ? 02:00:03 10° NNW 02:05:07 51° WSW 02:10:09 10° S visible
04 Dec ? 01:27:20 10° NNW 01:32:36 79° WSW 01:37:49 10° SSE visible
05 Dec ? 00:54:46 10° NNW 01:00:01 69° ENE 01:05:13 10° SSE visible
05 Dec ? 02:38:50 10° WNW 02:41:44 15° W 02:44:38 10° SW visible
06 Dec ? 00:22:18 10° N 00:27:22 45° ENE 00:32:22 10° SE visible
06 Dec ? 02:05:19 10° NW 02:09:25 23° W 02:13:29 10° SSW visible
06 Dec ? 13:24:22 10° ESE 13:26:50 13° E 13:29:16 10° ENE visible
07 Dec ? 01:32:16 10° NW 01:37:02 36° WSW 01:41:45 10° SSW visible
08 Dec ? 00:59:26 10° NNW 01:04:34 56° WSW 01:09:39 10° S visible
09 Dec ? 00:26:45 10° NNW 00:32:02 86° WSW 00:37:15 10° SSE visible
09 Dec ? 02:13:00 10° W 02:13:30 10° W 02:14:01 10° W visible
09 Dec ? 13:26:27 10° SSE 13:30:59 29° E 13:35:30 10° NE visible
